Cody, WY

4:06 AM MST on January 18, 2018 (GMT -0700)
Yellowstone Regional

Weather History for KCOD - November, 2011

Change the Weather History Date:

Monday, November 28, 2011

  Actual Average Record
Temperature  
Mean Temperature - -  
Max Temperature - 37 °F 63 °F (1932)
Min Temperature - 15 °F -13 °F (1919)
Moisture  
Dew Point -    
Average Humidity    
Maximum Humidity    
Minimum Humidity    
Precipitation  
Precipitation 0.00 in - - ()
Sea Level Pressure  
Sea Level Pressure 30.18 in    
Wind  
Wind Speed 8 mph (NW)    
Max Wind Speed 17 mph    
Max Gust Speed 23 mph    
Visibility 10 miles    
Events      
Averages and records for this station are not official NWS values.
T = Trace of Precipitation, MM = Missing Value Source: NWS Daily Summary

Daily Weather History Graph

Daily Weather History Graph

Search for Another Location

Airport or City:

Trip Planner

Search our weather history database for the weather conditions in past years. The results will help you decide how hot, cold, wet, or windy it might be!

Date:

Astronomy

Nov. 28, 2011 Rise Set
Actual Time 7:28 AM MST 4:38 PM MST
Civil Twilight 6:56 AM MST 5:11 PM MST
Nautical Twilight 6:20 AM MST 5:47 PM MST
Astronomical Twilight 5:45 AM MST 6:22 PM MST
Moon 10:39 AM MST (11/28) 8:31 PM MST (11/28)
Length of Visible Light 10h 15m
Length of Day
9h 10m
Waxing Crescent, 16% of the Moon is Illuminated
Nov 28
Waxing Crescent
Dec 2
First Quarter
Dec 10
Full
Dec 17
Last Quarter
Dec 24
New

Hourly Weather History & Observations

Time (MST) Temp. Windchill Dew Point Humidity Pressure Visibility Wind Dir Wind Speed Gust Speed Precip Events Conditions
12:15 AM - - - N/A% 30.07 in 10.0 mi NW 6.9 mph - N/A   Clear
12:35 AM - - - N/A% 30.07 in 10.0 mi NNW 6.9 mph 16.1 mph N/A   Clear
12:55 AM - - - N/A% 30.07 in 10.0 mi North 13.8 mph 21.9 mph N/A   Clear
1:35 AM - - - N/A% 30.06 in 10.0 mi SE 8.1 mph - N/A   Clear
1:55 AM - - - N/A% 30.05 in 10.0 mi SE 15.0 mph 20.7 mph N/A   Clear
2:15 AM - - - N/A% 30.06 in 10.0 mi NNW 8.1 mph 17.3 mph N/A   Clear
2:35 AM - - - N/A% 30.06 in 10.0 mi East 6.9 mph - N/A   Clear
2:55 AM - - - N/A% 30.06 in 10.0 mi East 12.7 mph - N/A   Clear
3:15 AM - - - N/A% 30.06 in 10.0 mi NNE 5.8 mph - N/A   Clear
3:35 AM - - - N/A% 30.07 in 10.0 mi WNW 13.8 mph 21.9 mph N/A   Clear
3:55 AM - - - N/A% 30.07 in 10.0 mi WNW 9.2 mph 19.6 mph N/A   Clear
4:15 AM - - - N/A% 30.08 in 10.0 mi NNW 6.9 mph - N/A   Clear
4:35 AM - - - N/A% 30.08 in 10.0 mi NW 8.1 mph 23.0 mph N/A   Clear
4:55 AM - - - N/A% 30.09 in 10.0 mi NNW 8.1 mph - N/A   Clear
5:35 AM - - - N/A% 30.10 in 10.0 mi SW 8.1 mph - N/A   Clear
5:55 AM - - - N/A% 30.10 in 10.0 mi WSW 11.5 mph - N/A   Clear
6:15 AM - - - N/A% 30.13 in 10.0 mi Calm Calm - N/A   Clear
6:35 AM - - - N/A% 30.14 in 10.0 mi North 4.6 mph - N/A   Clear
6:55 AM - - - N/A% 30.15 in 10.0 mi Calm Calm - N/A   Clear
7:35 AM - - - N/A% 30.17 in 10.0 mi SW 4.6 mph - N/A   Clear
7:55 AM - - - N/A% 30.19 in 10.0 mi WNW 5.8 mph - N/A   Clear
8:15 AM - - - N/A% 30.20 in 10.0 mi WSW 5.8 mph - N/A   Clear
8:35 AM - - - N/A% 30.21 in 10.0 mi WSW 8.1 mph - N/A   Clear
8:55 AM - - - N/A% 30.21 in 10.0 mi WSW 10.4 mph - N/A   Clear
9:15 AM - - - N/A% 30.23 in 10.0 mi WNW 8.1 mph - N/A   Clear
9:35 AM - - - N/A% 30.23 in 10.0 mi West 6.9 mph - N/A   Clear
10:15 AM - - - N/A% 30.25 in 10.0 mi West 4.6 mph - N/A   Clear
10:35 AM - - - N/A% 30.25 in 10.0 mi WNW 13.8 mph - N/A   Clear
10:55 AM - - - N/A% 30.25 in 10.0 mi WNW 9.2 mph - N/A   Clear
11:15 AM - - - N/A% 30.24 in 10.0 mi NW 11.5 mph - N/A   Clear
11:35 AM - - - N/A% 30.23 in 10.0 mi North 11.5 mph - N/A   Clear
11:55 AM - - - N/A% 30.22 in 10.0 mi North 15.0 mph - N/A   Clear
12:15 PM - - - N/A% 30.23 in 10.0 mi North 16.1 mph 21.9 mph N/A   Clear
12:35 PM - - - N/A% 30.23 in 10.0 mi North 17.3 mph 20.7 mph N/A   Clear
12:55 PM - - - N/A% 30.23 in 10.0 mi NNW 15.0 mph - N/A   Clear
1:15 PM - - - N/A% 30.24 in 10.0 mi North 13.8 mph - N/A   Clear
1:35 PM - - - N/A% 30.24 in 10.0 mi NNW 12.7 mph - N/A   Clear
1:55 PM - - - N/A% 30.25 in 10.0 mi NNW 11.5 mph - N/A   Clear
2:15 PM - - - N/A% 30.25 in 10.0 mi NNW 10.4 mph - N/A   Clear
2:35 PM - - - N/A% 30.25 in 10.0 mi NW 10.4 mph - N/A   Clear
2:55 PM - - - N/A% 30.25 in 10.0 mi NNW 10.4 mph - N/A   Clear
3:15 PM - - - N/A% 30.25 in 10.0 mi North 6.9 mph - N/A   Clear
3:35 PM - - - N/A% 30.25 in 10.0 mi North 3.5 mph - N/A   Clear
3:55 PM - - - N/A% 30.25 in 10.0 mi NNE 4.6 mph - N/A   Clear
4:35 PM - - - N/A% 30.26 in 10.0 mi North 4.6 mph - N/A   Clear
4:55 PM - - - N/A% 30.26 in 10.0 mi Calm Calm - N/A   Clear
5:15 PM - - - N/A% 30.26 in 10.0 mi Calm Calm - N/A   Clear
5:35 PM - - - N/A% 30.26 in 10.0 mi Calm Calm - N/A   Clear
6:15 PM - - - N/A% 30.27 in 10.0 mi SSE 3.5 mph - N/A   Clear
6:35 PM - - - N/A% 30.26 in 10.0 mi SSE 6.9 mph - N/A   Clear
7:15 PM - - - N/A% 30.26 in 10.0 mi Calm Calm - N/A   Clear
7:55 PM - - - N/A% 30.27 in 10.0 mi SSE 4.6 mph - N/A   Clear
8:15 PM 33.8 °F 27.0 °F 21.2 °F 60% 30.27 in 10.0 mi South 8.1 mph - N/A   Clear
8:35 PM - - - N/A% 30.26 in 10.0 mi Calm Calm - N/A   Clear
8:55 PM - - - N/A% 30.25 in 10.0 mi Calm Calm - N/A   Clear
9:15 PM - - - N/A% 30.26 in 10.0 mi Calm Calm - N/A   Clear
9:35 PM - - - N/A% 30.25 in 10.0 mi ESE 4.6 mph - N/A   Clear
10:15 PM - - - N/A% 30.24 in 10.0 mi SSE 6.9 mph - N/A   Clear
10:35 PM - - - N/A% 30.24 in 10.0 mi South 5.8 mph - N/A   Clear
10:55 PM - - - N/A% 30.24 in 10.0 mi SW 5.8 mph - N/A   Clear
11:15 PM - - - N/A% 30.24 in 10.0 mi NNW 5.8 mph - N/A   Clear
11:35 PM - - - N/A% 30.24 in 10.0 mi Calm Calm - N/A   Clear
11:55 PM - - - N/A% 30.24 in 10.0 mi NNE 3.5 mph - N/A   Clear